This demonstration page uses our WeatherBlox Daily Observations layout. Learn more.

Left ArrowRight Arrow

40.92945, -100.16068

Hourly Observations for June 18, 2016

Temp ( °F °C ) Dew Point ( °F °C ) Humidity (%) Winds ( mph kmh ) Pressure ( in mb ) Visibility ( mi km ) Precip ( " mm )
12:15 am 00:15 Clear 67 19.3 61 16 81 81 N 3 6 30.03 1017 10 16 N/A
12:35 am 00:35 Clear 66 19.1 61 16.1 83 83 N 6 9 30.03 1017 10 16 N/A
12:55 am 00:55 Clear 66 19 61 16 83 83 N 7 11 30.00 1016 10 16 0.00 0.00
1:15 am 01:15 Clear 66 19 61 16.2 84 84 NE 5 7 30.00 1016 10 16 N/A
1:40 am 01:40 Clear 66 18.7 62 16.6 88 88 ENE 3 6 30.03 1017 10 16 N/A
1:55 am 01:55 Clear 66 18.7 62 16.7 88 88 WNW 6 9 30.03 1017 10 16 N/A
2:15 am 02:15 Clear 66 19 63 17.1 89 89 NE 10 17 30.09 1019 10 16 N/A
2:35 am 02:35 Mostly Cloudy 68 19.9 60 15.6 76 76 NE 15 24 30.09 1019 10 16 N/A
2:55 am 02:55 Partly Cloudy 66 19 60 15.8 82 82 ENE 15 24 30.12 1020 10 16 N/A
3:15 am 03:15 Mostly Cloudy 65 18.5 61 15.9 85 85 E 23 37 30.12 1020 10 16 N/A
3:35 am 03:35 Cloudy 65 18.5 61 16 85 85 E 17 28 30.12 1020 10 16 N/A
3:55 am 03:55 Cloudy 65 18.3 60 15.8 85 85 E 15 24 30.12 1020 10 16 N/A
4:15 am 04:15 Mostly Cloudy 65 18.2 60 15.5 84 84 E 20 31 30.09 1019 10 16 N/A
4:35 am 04:35 Clear 65 18.2 60 15.3 83 83 ENE 15 24 30.09 1019 10 16 N/A
4:55 am 04:55 Partly Cloudy 65 18.3 60 15.3 83 83 E 16 26 30.09 1019 10 16 N/A
5:15 am 05:15 Clear 65 18.1 59 15.2 83 83 E 14 22 30.15 1021 10 16 N/A
5:35 am 05:35 Clear 64 18 59 15.1 83 83 E 13 20 30.09 1019 10 16 N/A
5:55 am 05:55 Clear 65 18.3 59 15 81 81 E 16 26 30.12 1020 10 16 N/A
6:15 am 06:15 Sunny 65 18.1 59 15 82 82 E 15 24 30.15 1021 10 16 N/A
6:35 am 06:35 Partly Cloudy 64 18 59 15.2 84 84 E 13 20 30.15 1021 10 16 N/A
6:55 am 06:55 Partly Cloudy 64 18 60 15.5 85 85 E 12 19 30.15 1021 10 16 0.00 0.00
7:15 am 07:15 Mostly Cloudy 64 18 60 15.6 86 86 E 8 13 30.15 1021 10 16 N/A
7:35 am 07:35 Cloudy 65 18.2 61 15.9 87 87 E 5 7 30.15 1021 10 16 N/A
7:55 am 07:55 Cloudy 65 18.6 61 16.1 85 85 E 5 7 30.12 1020 10 16 N/A
8:15 am 08:15 Cloudy 66 18.9 61 16 83 83 ESE 6 9 30.12 1020 10 16 N/A
8:35 am 08:35 Cloudy 67 19.5 62 16.5 83 83 SSE 8 13 30.12 1020 10 16 N/A
8:55 am 08:55 Mostly Cloudy 69 20.3 63 17.1 82 82 SE 6 9 30.12 1020 10 16 N/A
9:15 am 09:15 Mostly Cloudy 70 21 63 17.3 80 80 S 8 13 30.12 1020 10 16 N/A
9:35 am 09:35 Cloudy 70 21.2 64 17.5 80 80 S 7 11 30.12 1020 10 16 N/A
9:55 am 09:55 Mostly Cloudy 70 21.3 64 17.5 79 79 S 6 9 30.12 1020 10 16 N/A
10:15 am 10:15 Mostly Cloudy 71 21.9 64 17.8 78 78 SSW 8 13 30.09 1019 10 16 N/A
10:35 am 10:35 Partly Cloudy 73 22.8 65 18.1 75 75 SW 6 9 30.09 1019 10 16 N/A
10:55 am 10:55 Sunny 74 23.2 65 18.4 75 75 WSW 3 6 30.09 1019 10 16 N/A
11:15 am 11:15 Sunny 74 23.6 65 18.3 72 72 WSW 6 9 30.09 1019 10 16 N/A
11:35 am 11:35 Sunny 76 24.2 66 18.7 71 71 W 5 7 30.09 1019 10 16 N/A
11:55 am 11:55 Sunny 76 24.5 65 18.6 70 70 W 5 7 30.09 1019 10 16 N/A
12:15 pm 12:15 Mostly Cloudy 76 24.5 66 18.8 71 71 WNW 3 6 30.09 1019 10 16 N/A
12:35 pm 12:35 Partly Cloudy 78 25.3 65 18.6 67 67 Calm 30.06 1018 10 16 N/A
12:55 pm 12:55 Partly Cloudy 78 25.4 65 18.6 66 66 Calm 30.06 1018 10 16 N/A
1:15 pm 13:15 Mostly Cloudy 80 26.9 67 19.5 64 64 Calm 30.06 1018 10 16 N/A
1:35 pm 13:35 Mostly Cloudy 79 26.1 66 18.8 64 64 NE 3 6 30.06 1018 10 16 N/A
1:55 pm 13:55 Cloudy 78 25.6 66 18.9 67 67 NE 5 7 30.06 1018 10 16 N/A
2:15 pm 14:15 Cloudy 79 26.1 67 19.7 68 68 NE 6 9 30.06 1018 10 16 N/A
2:35 pm 14:35 Mostly Cloudy 80 26.6 67 19.6 66 66 NNE 6 9 30.06 1018 10 16 N/A
2:55 pm 14:55 Partly Cloudy 81 27.1 66 19.1 62 62 SE 5 7 30.06 1018 10 16 N/A
3:15 pm 15:15 Partly Cloudy 80 26.9 66 19 62 62 E 7 11 30.06 1018 10 16 N/A
3:35 pm 15:35 Partly Cloudy 82 27.6 64 18 56 56 E 7 11 30.06 1018 10 16 N/A
3:55 pm 15:55 Partly Cloudy 82 27.5 65 18.5 58 58 ESE 6 9 30.03 1017 7 11 N/A
4:15 pm 16:15 Partly Cloudy 82 27.8 65 18.4 57 57 Calm 30.03 1017 10 16 N/A
4:35 pm 16:35 Partly Cloudy 82 28 66 18.7 57 57 E 3 6 30.03 1017 10 16 N/A
4:55 pm 16:55 Partly Cloudy 83 28.5 67 19.3 57 57 ESE 8 13 30.00 1016 10 16 N/A
5:15 pm 17:15 Partly Cloudy 84 28.7 66 19 56 56 ESE 5 7 30.00 1016 10 16 N/A
5:35 pm 17:35 Partly Cloudy 84 28.8 66 19.1 56 56 ESE 5 7 30.00 1016 10 16 N/A
5:55 pm 17:55 Partly Cloudy 84 29.1 67 19.6 57 57 SE 7 11 30.00 1016 10 16 N/A
6:15 pm 18:15 Partly Cloudy 84 29 67 19.2 55 55 ESE 6 9 29.97 1015 10 16 N/A
6:35 pm 18:35 Sunny 84 29 67 19.4 56 56 SE 7 11 29.97 1015 10 16 N/A
6:55 pm 18:55 Sunny 84 28.8 67 19.2 56 56 ESE 8 13 29.97 1015 10 16 N/A
7:15 pm 19:15 Sunny 84 28.9 66 19 55 55 SE 5 7 29.97 1015 10 16 N/A
7:35 pm 19:35 Sunny 84 28.8 68 19.9 59 59 SE 5 7 29.97 1015 10 16 N/A
7:55 pm 19:55 Sunny 83 28.5 67 19.4 58 58 SSE 6 9 29.97 1015 10 16 N/A
8:15 pm 20:15 Sunny 83 28.3 67 19.6 59 59 SSE 6 9 29.97 1015 10 16 N/A
8:35 pm 20:35 Sunny 82 27.6 68 20 63 63 SE 5 7 30.00 1016 10 16 N/A
8:55 pm 20:55 Sunny 81 27 69 20.5 68 68 SSE 5 7 30.03 1017 10 16 N/A
9:15 pm 21:15 Clear 79 25.9 70 21 74 74 SSE 3 6 30.03 1017 10 16 N/A
9:35 pm 21:35 Clear 77 25.2 69 20.7 76 76 S 3 6 30.03 1017 10 16 N/A
9:55 pm 21:55 Clear 76 24.7 69 20.4 77 77 S 5 7 30.06 1018 10 16 N/A
10:15 pm 22:15 Clear 76 24.3 69 20.3 78 78 S 3 6 30.06 1018 10 16 N/A
10:35 pm 22:35 Clear 75 24 68 20 78 78 SSE 5 7 30.06 1018 10 16 N/A
10:55 pm 22:55 Clear 74 23.6 68 20.2 81 81 SSE 5 7 30.06 1018 10 16 N/A
11:15 pm 23:15 Clear 75 23.9 68 20.2 80 80 SSE 8 13 30.06 1018 10 16 N/A
11:35 pm 23:35 Clear 75 23.8 68 20 79 79 SSE 8 13 30.06 1018 10 16 N/A
11:55 pm 23:55 Clear 75 24 68 19.8 77 77 S 10 17 30.06 1018 10 16 N/A

Powered by AerisWeather